User: anonymous   Login
Location: Columbia
(38.9520°N, 92.3340°W)
Time: 06:11:56
(UTC-06:00)
Language:

Cosmos 158 Rocket - Orbit

View from above orbital plane
View from above orbital plane
View from above satellite
View from above satellite

Ground track
Ground track

The orbit data is extracted from the following two-line orbital elements,

1  2802U 67045B   18053.44454877 +.00000039 +00000-0 +19012-4 0  9993
2  2802 074.0106 060.8056 0065391 054.3627 306.3595 14.43683979665099
Epoch (UTC): 22 February 2018 10:40:09
Eccentricity: 0.0065391
inclination: 74.0106°
perigee height: 700 km
apogee height: 793 km
right ascension of ascending node: 60.8056°
argument of perigee: 54.3627°
revolutions per day: 14.43683979
mean anomaly at epoch: 306.3595°
orbit number at epoch: 66509

The dashed part of the orbit path shows where the satellite is in the earth's shadow,  

DLR